Simultaneous Nadir Overpasses (SNOs) Predictions

Prediction of SNOs between FY3D and NOAA-19 Satellite Orbit:

Table of predicted SNOs for the next 14.0 days since TLE Epoch: 10/30/2021
Index Date (FY3D) Time (FY3D) Lat,Lon (FY3D) SZA (FY3D ) Date (NOAA-19) Time (NOAA-19) Lat,Lon (NOAA-19) SZA (NOAA-19 ) Distance(km) Time Diff (sec)
1 11/04/2021 05:22:41 -78.10,-102.10 86.01 11/04/2021 05:21:28 -78.08,-102.16 86.01 3.16 73
2 11/04/2021 06:13:26 78.12, 65.15 94.02 11/04/2021 06:12:27 78.11, 65.25 94.02 2.59 59
3 11/04/2021 07:04:10 -78.11,-127.49 85.98 11/04/2021 07:03:27 -78.12,-127.39 85.96 2.96 43
4 11/04/2021 07:54:55 78.12, 39.76 94.05 11/04/2021 07:54:27 78.11, 39.80 94.05 1.20 28
5 11/04/2021 08:45:39 -78.11,-152.89 85.95 11/04/2021 08:45:27 -78.13,-152.84 85.93 2.31 12
6 11/04/2021 09:36:24 78.12, 14.37 94.08 11/04/2021 09:36:27 78.12, 14.34 94.08 0.76 3
7 11/04/2021 10:27:08 -78.12,-178.28 85.92 11/04/2021 10:27:27 -78.14,-178.29 85.91 2.45 19
8 11/04/2021 11:17:53 78.13, -11.03 94.11 11/04/2021 11:18:27 78.13, -11.11 94.10 2.01 34
9 11/04/2021 12:08:37 -78.12, 156.33 85.90 11/04/2021 12:09:27 -78.15, 156.26 85.88 3.27 50
10 11/04/2021 12:59:22 78.13, -36.42 94.13 11/04/2021 13:00:27 78.13, -36.57 94.13 3.44 65
11 11/04/2021 13:50:13 -78.40, 129.40 85.52 11/04/2021 13:51:21 -78.37, 132.17 85.72 62.13 68



Historial Predications of SNOs between FY3D and NOAA-19
